�������l�o���
Date,Time,MP-1(��Sv/h),MP-2(��Sv/h),MP-3(��Sv/h),MP-4(��Sv/h),MP-5(��Sv/h),MP-6(��Sv/h),MP-7(��Sv/h),MP-8(��Sv/h),����,����(m/s),���J
2023/10/27,00:00,0.533,0.809,0.498,1.018,0.734,0.322,0.576,0.537,���k��,3.2,��
2023/10/27,00:10,0.534,0.810,0.499,1.019,0.734,0.323,0.576,0.535,���k��,2.8,��
2023/10/27,00:20,0.533,0.809,0.498,1.019,0.735,0.323,0.576,0.535,���k��,3.0,��
2023/10/27,00:30,0.535,0.808,0.500,1.019,0.733,0.321,0.575,0.536,���k��,3.1,��
2023/10/27,00:40,0.533,0.810,0.499,1.020,0.735,0.321,0.576,0.535,���k��,2.8,��
2023/10/27,00:50,0.534,0.808,0.501,1.018,0.735,0.322,0.576,0.535,���k��,2.9,��
2023/10/27,01:00,0.534,0.809,0.499,1.017,0.732,0.321,0.576,0.535,���k��,3.7,��
2023/10/27,01:10,0.532,0.807,0.501,1.020,0.733,0.321,0.574,0.536,���k��,3.4,��
2023/10/27,01:20,0.534,0.807,0.499,1.018,0.734,0.323,0.576,0.536,��,2.8,��
2023/10/27,01:30,0.534,0.809,0.500,1.018,0.732,0.323,0.576,0.536,��,3.3,��
2023/10/27,01:40,0.534,0.807,0.498,1.017,0.733,0.322,0.575,0.536,��,3.9,��
2023/10/27,01:50,0.531,0.808,0.498,1.018,0.734,0.321,0.575,0.535,��,3.4,��
2023/10/27,02:00,0.533,0.809,0.499,1.021,0.735,0.321,0.576,0.536,��,3.6,��
2023/10/27,02:10,0.534,0.809,0.499,1.018,0.733,0.323,0.576,0.535,��,3.5,��
2023/10/27,02:20,0.534,0.807,0.500,1.018,0.734,0.321,0.576,0.536,��,3.4,��
2023/10/27,02:30,0.532,0.808,0.498,1.020,0.735,0.323,0.576,0.534,��,3.2,��
2023/10/27,02:40,0.534,0.808,0.498,1.017,0.735,0.322,0.575,0.535,��,3.0,��
2023/10/27,02:50,0.532,0.809,0.499,1.019,0.731,0.322,0.577,0.535,��,2.3,��
2023/10/27,03:00,0.535,0.808,0.500,1.018,0.735,0.322,0.576,0.534,��,2.5,��
2023/10/27,03:10,0.532,0.807,0.498,1.020,0.734,0.321,0.576,0.536,��,3.6,��
2023/10/27,03:20,0.533,0.807,0.498,1.020,0.733,0.321,0.576,0.535,��,4.4,��
2023/10/27,03:30,0.534,0.808,0.499,1.020,0.733,0.322,0.576,0.534,��,4.7,��
2023/10/27,03:40,0.532,0.810,0.497,1.018,0.733,0.321,0.577,0.536,���k��,4.2,��
2023/10/27,03:50,0.535,0.808,0.499,1.019,0.732,0.322,0.576,0.535,��,3.6,��
2023/10/27,04:00,0.534,0.807,0.498,1.018,0.733,0.321,0.577,0.536,��,3.5,��
2023/10/27,04:10,0.533,0.808,0.498,1.017,0.733,0.322,0.575,0.534,��,3.1,��
2023/10/27,04:20,0.534,0.808,0.498,1.020,0.734,0.321,0.577,0.535,���k��,2.8,��
2023/10/27,04:30,0.536,0.807,0.498,1.019,0.733,0.321,0.576,0.534,���k��,3.1,��
2023/10/27,04:40,0.534,0.809,0.499,1.018,0.732,0.320,0.575,0.535,��,3.2,��
2023/10/27,04:50,0.533,0.806,0.499,1.016,0.734,0.321,0.575,0.535,��,3.0,��
2023/10/27,05:00,0.531,0.807,0.498,1.016,0.733,0.321,0.575,0.534,��,2.6,��
2023/10/27,05:10,0.532,0.807,0.497,1.017,0.733,0.321,0.576,0.535,���쐼,3.4,��
2023/10/27,05:20,0.533,0.807,0.497,1.017,0.735,0.321,0.576,0.535,��,2.5,��
2023/10/27,05:30,0.532,0.808,0.497,1.016,0.734,0.322,0.575,0.534,��,2.6,��
2023/10/27,05:40,0.532,0.808,0.497,1.019,0.732,0.321,0.575,0.535,���쐼,4.0,��
2023/10/27,05:50,0.533,0.807,0.500,1.018,0.734,0.322,0.575,0.535,���쐼,3.8,��
2023/10/27,06:00,0.532,0.806,0.499,1.018,0.733,0.321,0.575,0.534,�쐼,2.8,��
2023/10/27,06:10,0.533,0.805,0.498,1.017,0.731,0.320,0.576,0.534,��쐼,3.0,��
2023/10/27,06:20,0.533,0.807,0.499,1.017,0.734,0.322,0.575,0.534,��쐼,3.6,��
2023/10/27,06:30,0.532,0.806,0.498,1.020,0.734,0.321,0.578,0.535,�쐼,3.3,��
2023/10/27,06:40,0.533,0.806,0.498,1.018,0.734,0.320,0.576,0.534,��쐼,2.2,��
2023/10/27,06:50,0.531,0.807,0.498,1.018,0.731,0.321,0.576,0.535,��쐼,2.0,��
2023/10/27,07:00,0.533,0.807,0.499,1.017,0.733,0.321,0.578,0.535,��,2.0,��
2023/10/27,07:10,0.532,0.809,0.498,1.017,0.734,0.322,0.577,0.536,���쐼,1.7,��
2023/10/27,07:20,0.533,0.808,0.498,1.018,0.733,0.321,0.576,0.535,��쐼,1.5,��
2023/10/27,07:30,0.533,0.807,0.498,1.018,0.733,0.321,0.576,0.535,��쐼,1.4,��
2023/10/27,07:40,0.535,0.809,0.499,1.020,0.735,0.321,0.575,0.537,��쐼,1.2,��
2023/10/27,07:50,0.536,0.809,0.501,1.019,0.734,0.322,0.575,0.537,-,CALM,��
2023/10/27,08:00,0.533,0.808,0.500,1.019,0.736,0.321,0.578,0.535,-,CALM,��
2023/10/27,08:10,0.535,0.808,0.498,1.021,0.733,0.322,0.577,0.535,�쓌,0.9,��
2023/10/27,08:20,0.535,0.807,0.502,1.016,0.735,0.323,0.577,0.536,-,CALM,��
2023/10/27,08:30,0.536,0.807,0.500,1.018,0.733,0.321,0.575,0.536,���k��,0.6,��
2023/10/27,08:40,0.532,0.806,0.499,1.020,0.731,0.321,0.575,0.536,�k��,0.9,��
2023/10/27,08:50,0.534,0.808,0.501,1.019,0.734,0.323,0.575,0.537,�k��,0.6,��
2023/10/27,09:00,0.532,0.804,0.499,1.021,0.734,0.322,0.576,0.536,�k�k��,1.2,��
2023/10/27,09:10,0.533,0.805,0.500,1.022,0.736,0.323,0.576,0.536,�k��,1.5,��
2023/10/27,09:20,0.533,0.807,0.502,1.020,0.733,0.321,0.576,0.536,���k��,1.2,��
2023/10/27,09:30,0.533,0.805,0.499,1.019,0.731,0.321,0.575,0.534,�k��,1.9,��
2023/10/27,09:40,0.534,0.807,0.499,1.017,0.733,0.320,0.577,0.533,�k�k��,2.0,��
2023/10/27,09:50,0.533,0.809,0.500,1.017,0.735,0.320,0.576,0.535,�k,2.5,��
2023/10/27,10:00,0.534,0.807,0.500,1.019,0.732,0.321,0.576,0.535,�k�k��,1.7,��
2023/10/27,10:10,0.534,0.808,0.500,1.020,0.736,0.321,0.576,0.534,�k�k��,2.3,��
2023/10/27,10:20,0.533,0.808,0.500,1.022,0.735,0.320,0.576,0.535,�k��,2.6,��
2023/10/27,10:30,0.533,0.807,0.499,1.020,0.736,0.321,0.575,0.534,�k��,2.6,��
2023/10/27,10:40,0.534,0.809,0.499,1.020,0.735,0.320,0.576,0.535,�k�k��,2.2,��
2023/10/27,10:50,0.535,0.807,0.498,1.023,0.734,0.320,0.577,0.533,���k��,2.3,��
2023/10/27,11:00,0.535,0.810,0.499,1.019,0.734,0.321,0.577,0.534,���k��,1.9,��
2023/10/27,11:10,0.535,0.808,0.500,1.019,0.734,0.320,0.576,0.534,���k��,2.5,��
2023/10/27,11:20,0.534,0.809,0.500,1.020,0.734,0.322,0.576,0.534,���k��,2.5,��
2023/10/27,11:30,0.534,0.806,0.498,1.020,0.734,0.321,0.577,0.536,���k��,2.0,��
2023/10/27,11:40,0.534,0.809,0.499,1.020,0.735,0.320,0.575,0.535,���k��,1.7,��
2023/10/27,11:50,0.536,0.810,0.499,1.020,0.735,0.322,0.576,0.534,�k��,2.0,��
2023/10/27,12:00,0.535,0.809,0.500,1.021,0.736,0.321,0.576,0.536,�k��,2.3,��
2023/10/27,12:10,0.534,0.809,0.500,1.020,0.734,0.320,0.576,0.535,���k��,1.9,��
2023/10/27,12:20,0.535,0.809,0.500,1.020,0.734,0.322,0.575,0.532,��,1.4,��
2023/10/27,12:30,0.534,0.808,0.499,1.019,0.737,0.322,0.576,0.534,�k��,2.6,��
2023/10/27,12:40,0.535,0.809,0.498,1.022,0.735,0.321,0.576,0.537,���k��,1.9,��
2023/10/27,12:50,0.535,0.810,0.500,1.020,0.736,0.322,0.576,0.535,�k��,2.2,��
2023/10/27,13:00,0.534,0.811,0.499,1.022,0.736,0.321,0.578,0.533,�k��,2.0,��
2023/10/27,13:10,0.536,0.809,0.500,1.023,0.735,0.319,0.576,0.535,���k��,2.5,��
2023/10/27,13:20,0.533,0.810,0.500,1.022,0.736,0.322,0.575,0.535,�k��,2.9,��
2023/10/27,13:30,0.534,0.808,0.499,1.019,0.734,0.322,0.577,0.536,���k��,2.2,��
2023/10/27,13:40,0.535,0.810,0.500,1.023,0.736,0.322,0.575,0.536,���k��,2.5,��
2023/10/27,13:50,0.536,0.808,0.501,1.019,0.737,0.320,0.575,0.536,���k��,2.0,��
2023/10/27,14:00,0.533,0.810,0.499,1.020,0.738,0.322,0.576,0.534,���k��,2.0,��
2023/10/27,14:10,0.534,0.809,0.500,1.023,0.736,0.323,0.576,0.534,�k��,2.0,��
2023/10/27,14:20,0.534,0.808,0.501,1.019,0.735,0.322,0.574,0.533,�k��,1.9,��
2023/10/27,14:30,0.535,0.809,0.499,1.021,0.734,0.322,0.575,0.535,�k�k��,1.7,�L
2023/10/27,14:40,0.534,0.810,0.500,1.019,0.734,0.322,0.575,0.533,�k,1.7,��
2023/10/27,14:50,0.533,0.809,0.498,1.020,0.736,0.323,0.576,0.535,�k�k��,2.3,��
2023/10/27,15:00,0.535,0.809,0.499,1.020,0.735,0.323,0.576,0.534,�k,2.9,��
2023/10/27,15:10,0.537,0.809,0.501,1.019,0.736,0.323,0.576,0.535,�k,2.5,��
2023/10/27,15:20,0.533,0.808,0.499,1.020,0.738,0.323,0.576,0.535,�k,2.0,��
2023/10/27,15:30,0.535,0.812,0.501,1.019,0.737,0.323,0.575,0.535,�k,2.6,��
2023/10/27,15:40,0.535,0.811,0.502,1.019,0.738,0.322,0.575,0.536,�k�k��,2.0,��
2023/10/27,15:50,0.535,0.812,0.502,1.019,0.738,0.322,0.575,0.536,���쐼,2.2,��
2023/10/27,16:00,0.536,0.813,0.502,1.020,0.738,0.323,0.576,0.536,��쐼,2.2,��
2023/10/27,16:10,0.535,0.811,0.503,1.020,0.738,0.324,0.577,0.535,��쓌,3.7,�L
2023/10/27,16:20,0.538,0.816,0.505,1.021,0.740,0.325,0.578,0.538,���k��,1.4,�L
2023/10/27,16:30,0.540,0.817,0.506,1.023,0.737,0.325,0.575,0.537,�쐼,2.0,�L
2023/10/27,16:40,0.539,0.814,0.504,1.022,0.737,0.327,0.576,0.538,�쐼,2.9,�L
2023/10/27,16:50,0.538,0.815,0.503,1.021,0.736,0.325,0.576,0.536,���쐼,2.3,��
2023/10/27,17:00,0.536,0.814,0.503,1.021,0.737,0.326,0.575,0.536,��,2.5,��
2023/10/27,17:10,0.539,0.814,0.502,1.020,0.737,0.326,0.575,0.534,���k��,1.9,��
2023/10/27,17:20,0.538,0.814,0.501,1.020,0.738,0.325,0.574,0.535,�k��,1.9,��
2023/10/27,17:30,0.536,0.812,0.501,1.020,0.737,0.325,0.576,0.535,�k��,1.5,��
2023/10/27,17:40,0.537,0.813,0.502,1.018,0.737,0.326,0.577,0.536,���k��,1.5,��
2023/10/27,17:50,0.535,0.812,0.501,1.021,0.738,0.323,0.577,0.536,���k��,1.2,��
2023/10/27,18:00,0.535,0.812,0.502,1.020,0.735,0.325,0.575,0.535,���k��,1.9,��
2023/10/27,18:10,0.535,0.811,0.500,1.022,0.736,0.325,0.576,0.535,���k��,2.0,��
2023/10/27,18:20,0.536,0.811,0.501,1.019,0.737,0.324,0.575,0.535,��,2.0,��
2023/10/27,18:30,0.535,0.809,0.500,1.020,0.735,0.323,0.576,0.536,���k��,2.0,��
2023/10/27,18:40,0.537,0.812,0.500,1.020,0.736,0.323,0.576,0.535,��,2.3,��
2023/10/27,18:50,0.535,0.810,0.499,1.019,0.736,0.323,0.575,0.537,���쐼,1.7,��
2023/10/27,19:00,0.534,0.808,0.500,1.020,0.734,0.322,0.575,0.536,��,2.0,��
2023/10/27,19:10,0.535,0.811,0.500,1.019,0.734,0.322,0.575,0.536,���쐼,1.9,��
2023/10/27,19:20,0.535,0.810,0.500,1.019,0.734,0.323,0.577,0.535,���쐼,1.9,��
2023/10/27,19:30,0.535,0.810,0.499,1.019,0.735,0.323,0.577,0.534,�쐼,2.3,��
2023/10/27,19:40,0.535,0.810,0.499,1.020,0.735,0.322,0.576,0.535,�쐼,2.3,��
2023/10/27,19:50,0.535,0.810,0.500,1.018,0.734,0.323,0.575,0.533,�쐼,2.6,��
2023/10/27,20:00,0.532,0.808,0.500,1.018,0.735,0.323,0.575,0.535,�쐼,3.0,��
2023/10/27,20:10,0.535,0.808,0.499,1.020,0.734,0.322,0.576,0.536,�쐼,3.9,��
2023/10/27,20:20,0.534,0.809,0.500,1.018,0.734,0.320,0.574,0.534,��쐼,4.3,��
2023/10/27,20:30,0.534,0.807,0.499,1.020,0.735,0.323,0.576,0.535,��쐼,3.9,��
2023/10/27,20:40,0.536,0.808,0.499,1.018,0.734,0.322,0.576,0.536,��쐼,4.0,��
2023/10/27,20:50,0.533,0.810,0.498,1.019,0.733,0.321,0.574,0.535,��쐼,4.0,��
2023/10/27,21:00,0.533,0.807,0.500,1.017,0.735,0.322,0.576,0.534,��쐼,4.0,��
2023/10/27,21:10,0.534,0.810,0.499,1.018,0.735,0.321,0.575,0.535,��쐼,4.2,��
2023/10/27,21:20,0.534,0.810,0.499,1.017,0.734,0.321,0.577,0.534,�쐼,4.1,��
2023/10/27,21:30,0.535,0.809,0.500,1.018,0.735,0.323,0.575,0.536,��쐼,3.5,��
2023/10/27,21:40,0.534,0.809,0.500,1.018,0.735,0.321,0.576,0.535,�쐼,3.6,��
2023/10/27,21:50,0.534,0.809,0.498,1.019,0.736,0.322,0.576,0.535,�쐼,3.0,��
2023/10/27,22:00,0.534,0.808,0.499,1.018,0.733,0.321,0.576,0.535,��쐼,2.3,��
2023/10/27,22:10,0.533,0.809,0.501,1.020,0.734,0.322,0.577,0.534,�쐼,2.2,��
2023/10/27,22:20,0.534,0.808,0.499,1.017,0.735,0.321,0.576,0.534,���쐼,2.0,��
2023/10/27,22:30,0.536,0.807,0.499,1.016,0.735,0.322,0.577,0.534,���쐼,1.5,��
2023/10/27,22:40,0.533,0.806,0.499,1.017,0.734,0.322,0.576,0.534,��,1.4,��
2023/10/27,22:50,0.534,0.807,0.499,1.022,0.734,0.323,0.574,0.534,��,1.2,��
2023/10/27,23:00,0.533,0.808,0.499,1.017,0.733,0.322,0.577,0.533,���k��,1.5,��
2023/10/27,23:10,0.534,0.805,0.499,1.020,0.734,0.321,0.576,0.535,�k��,2.0,��
2023/10/27,23:20,0.533,0.808,0.498,1.019,0.733,0.321,0.576,0.534,���k��,2.5,��
2023/10/27,23:30,0.535,0.807,0.499,1.018,0.733,0.322,0.577,0.533,�k��,3.6,��
2023/10/27,23:40,0.535,0.806,0.499,1.020,0.733,0.322,0.575,0.533,�k��,2.8,��
2023/10/27,23:50,0.534,0.807,0.499,1.019,0.734,0.323,0.575,0.533,���k��,3.2,��
